| time (UTC) | temp F | wind direction | speed knots | gust knots | rain 1hr in | rain 24hr in | rain mn in | humidity % | barometer mb |
| 20260505064541 | 66 | 291 | 0.9 | 5.2 | 0.00 | 0.00 | 0.00 | 72 | 1005.0 |
| 20260505063032 | 66 | 246 | 0.9 | 6.1 | 0.00 | 0.00 | 0.00 | 72 | 1005.3 |
| 20260505061546 | 66 | 290 | 0.9 | 5.2 | 0.00 | 0.00 | 0.00 | 71 | 1005.4 |
| 20260505060028 | 66 | 233 | 0.0 | 2.6 | 0.00 | 0.00 | 0.00 | 69 | 1005.6 |
| 20260505054544 | 66 | 206 | 0.9 | 3.5 | 0.00 | 0.00 | 0.00 | 69 | 1005.8 |
| 20260505053030 | 66 | 236 | 0.0 | 1.7 | 0.00 | 0.00 | 0.00 | 68 | 1006.0 |
| 20260505051525 | 66 | 230 | 0.0 | 3.5 | 0.00 | 0.00 | 0.00 | 68 | 1006.1 |
| 20260505041519 | 66 | 290 | 0.0 | 3.5 | 0.00 | 0.00 | 0.00 | 65 | 1006.4 |
| 20260505040019 | 67 | 222 | 0.0 | 4.3 | 0.00 | 0.00 | 0.00 | 65 | 1006.5 |
| 20260505034519 | 67 | 277 | 0.0 | 2.6 | 0.00 | 0.00 | 0.00 | 65 | 1006.6 |
| 20260505033021 | 67 | 294 | 0.0 | 3.5 | 0.00 | 0.00 | 0.00 | 66 | 1006.8 |
| 20260505031537 | 67 | 286 | 0.0 | 4.3 | 0.00 | 0.00 | 0.00 | 65 | 1006.8 |
| 20260505030017 | 67 | 274 | 0.0 | 3.5 | 0.00 | 0.00 | 0.00 | 65 | 1006.6 |
| 20260505024530 | 68 | 305 | 0.0 | 3.5 | 0.00 | 0.00 | 0.00 | 63 | 1006.4 |
| 20260505023016 | 68 | 240 | 0.0 | 1.7 | 0.00 | 0.00 | 0.00 | 64 | 1006.3 |
| 20260505021519 | 68 | 241 | 0.0 | 1.7 | 0.00 | 0.00 | 0.00 | 63 | 1006.0 |
| 20260505020026 | 69 | 174 | 0.0 | 1.7 | 0.00 | 0.00 | 0.00 | 62 | 1005.9 |
| 20260505014518 | 69 | 221 | 0.0 | 1.7 | 0.00 | 0.00 | 0.00 | 62 | 1005.7 |
| 20260505013014 | 69 | 232 | 0.0 | 0.9 | 0.00 | 0.00 | 0.00 | 61 | 1005.8 |
| 20260505011521 | 70 | 238 | 0.0 | 1.7 | 0.00 | 0.00 | 0.00 | 61 | 1005.6 |
| 20260505010012 | 70 | 231 | 0.0 | 5.2 | 0.00 | 0.00 | 0.00 | 60 | 1005.4 |
| 20260505004524 | 71 | 209 | 0.0 | 1.7 | 0.00 | 0.00 | 0.00 | 60 | 1005.6 |
| 20260505003009 | 71 | 238 | 0.0 | 1.7 | 0.00 | 0.00 | 0.00 | 59 | 1005.6 |
| 20260505001508 | 72 | 219 | 0.0 | 0.9 | 0.00 | 0.00 | 0.00 | 58 | 1005.6 |
| 20260505000011 | 73 | 226 | 0.0 | 1.7 | 0.00 | 0.00 | 0.00 | 56 | 1005.7 |
| 20260504234506 | 73 | 229 | 0.9 | 4.3 | 0.00 | 0.00 | 0.00 | 55 | 1005.8 |
| 20260504233004 | 74 | 229 | 1.7 | 6.1 | 0.00 | 0.00 | 0.00 | 53 | 1006.0 |
| 20260504231501 | 74 | 229 | 0.9 | 2.6 | 0.00 | 0.00 | 0.00 | 53 | 1006.2 |
| 20260504230109 | 75 | 233 | 0.0 | 5.2 | 0.00 | 0.00 | 0.00 | 52 | 1006.4 |
| 20260504224559 | 75 | 234 | 0.9 | 9.6 | 0.00 | 0.00 | 0.00 | 51 | 1006.5 |
| 20260504223104 | 75 | 240 | 0.9 | 4.3 | 0.00 | 0.00 | 0.00 | 52 | 1006.6 |
| 20260504221605 | 75 | 255 | 0.0 | 11.3 | 0.00 | 0.00 | 0.00 | 52 | 1006.6 |
| 20260504220059 | 76 | 239 | 1.7 | 7.0 | 0.00 | 0.00 | 0.00 | 51 | 1006.9 |
| 20260504214557 | 76 | 155 | 0.0 | 5.2 | 0.00 | 0.00 | 0.00 | 53 | 1006.9 |
| 20260504213053 | 75 | 242 | 0.9 | 9.6 | 0.00 | 0.00 | 0.00 | 51 | 1007.2 |
| 20260504211550 | 76 | 145 | 1.7 | 5.2 | 0.00 | 0.00 | 0.00 | 50 | 1007.5 |
| 20260504210051 | 75 | 214 | 1.7 | 7.8 | 0.00 | 0.00 | 0.00 | 50 | 1007.6 |
| 20260504204545 | 76 | 214 | 1.7 | 8.7 | 0.00 | 0.00 | 0.00 | 50 | 1007.8 |
| 20260504203047 | 75 | 230 | 1.7 | 7.0 | 0.00 | 0.00 | 0.00 | 50 | 1008.0 |
| 20260504201542 | 76 | 220 | 0.9 | 14.8 | 0.00 | 0.00 | 0.00 | 48 | 1008.3 |
| 20260504200039 | 76 | 285 | 3.5 | 10.4 | 0.00 | 0.00 | 0.00 | 49 | 1008.7 |
| 20260504194538 | 76 | 181 | 0.9 | 9.6 | 0.00 | 0.00 | 0.00 | 49 | 1008.8 |
| 20260504193035 | 76 | 293 | 3.5 | 13.9 | 0.00 | 0.00 | 0.00 | 48 | 1009.1 |
| 20260504191536 | 75 | 288 | 0.9 | 12.2 | 0.00 | 0.00 | 0.00 | 52 | 1009.4 |
| 20260504190030 | 75 | 272 | 1.7 | 6.1 | 0.00 | 0.00 | 0.00 | 49 | 1009.4 |
| 20260504184530 | 75 | 236 | 1.7 | 11.3 | 0.00 | 0.00 | 0.00 | 49 | 1009.5 |
| 20260504183028 | 75 | 225 | 2.6 | 14.8 | 0.00 | 0.00 | 0.00 | 50 | 1009.8 |
| 20260504181528 | 75 | 238 | 1.7 | 8.7 | 0.00 | 0.00 | 0.00 | 51 | 1010.0 |
| 20260504180022 | 74 | 238 | 2.6 | 9.6 | 0.00 | 0.00 | 0.00 | 52 | 1010.0 |
| 20260504174520 | 73 | 238 | 3.5 | 10.4 | 0.00 | 0.00 | 0.00 | 51 | 1010.4 |
| 20260504173020 | 73 | 230 | 3.5 | 13.0 | 0.00 | 0.00 | 0.00 | 50 | 1010.5 |
| 20260504171517 | 73 | 231 | 1.7 | 8.7 | 0.00 | 0.00 | 0.00 | 52 | 1010.7 |
| 20260504081521 | 62 | 232 | 0.0 | 1.7 | 0.00 | 0.00 | 0.00 | 68 | 1011.8 |